STARLINK-31098 (58716 NORAD) Tracking and Keplerian Element Data

This shows tracking and keplerian element data for the satellite.

Feedback or suggestion? Click here.




ElementValue
Catalog58716
NameSTARLINK-31098
Epoch Orbit272
Epoch Day12.91667824
Epoch Year2024
RAAN200.3817
Inclination53.1607
Eccentricity0.0001
Argument of Perigee69.1861
Mean Anonmoly106.0859
Mean Motion15.52663855
Decay Rate-0.01696347
L11 58716U 24002M 24012.91667824 -.01696347 00000+0 -30257-1 0 9992
L22 58716 53.1607 200.3817 0001000 69.1861 106.0859 15.52663855 2720



Live tracking and technical data element details for STARLINK-31098 (NORAD 58716). STARLINK-31098 can be tracked NOW for your location showing map with azimuth and elevation plus other details from your city location.







IsCatalogInMostPopularTable: catalog: 58716, numindb: 29
Update: records affected: 1



GetName: 58716 STARLINK-31098

Hit Count: updated at: Wed, 17 Apr 2024 03:08:50 GMT